{"data":{"norad_id":59321,"epoch":"2026-09-21T03:01:50.236032Z","epoch_age_seconds":108054,"freshness":"FRESH","line1":"1 59321U 24057B   26264.12627588  .00000580  00000+0  30610-4 0  9993","line2":"2 59321  43.0013 162.9137 0001194 269.0483  91.0232 15.27577908139730","mean_motion":15.27577908,"eccentricity":0.0001194,"inclination_deg":43.0013,"raan_deg":162.9137,"arg_perigee_deg":269.0483,"mean_anomaly_deg":91.0232,"bstar":3.061e-5,"rev_number":13973,"period_min":94.266877810857,"perigee_km":482.23613387958,"apogee_km":483.87458661521,"semimajor_km":6861.1923602474,"source":"CELESTRAK","updated_at":"2026-09-22T09:00:48.897895Z"}}